Temperature
27 28 28 29 29 28 28 28 27 27 26 26 25 24 23 22 22 21 20 20 19 19 18 18 18 18 18 17 18 17 17 18 17 17 17 16 16 16 16 15 15 15 15 15
28 28 29 28 28 28 27 27 27 26 25 25 24 23 23 22 22 21 21 20 20 19 18 18 18 18 17 17 17 17 17 17 17 17 17 16 16 16 15 15 15 15 14 14
28 29 29 28 28 27 28 27 27 26 25 25 24 24 23 22 21 21 20 20 20 19 19 18 18 18 18 17 17 17 17 17 17 17 16 16 16 15 15 15 15 14 14 14
29 29 28 28 28 28 27 27 27 26 25 25 25 24 24 23 23 22 21 20 20 20 19 19 19 18 18 18 17 17 17 17 16 16 16 15 15 15 15 14 14 14 13 13
29 28 28 28 27 27 27 26 26 26 26 26 25 25 25 24 23 23 23 21 21 20 20 20 19 19 18 18 17 17 17 16 16 16 15 15 15 15 14 14 13 13 13 12
29 28 28 28 27 27 26 26 26 26 27 25 25 25 25 25 24 24 23 22 21 21 20 20 19 19 18 18 17 17 16 16 16 15 15 15 14 14 13 13 13 13 13 13
28 28 28 28 27 27 27 27 26 26 26 25 25 25 25 25 25 25 24 23 22 21 21 20 20 19 18 18 17 17 16 16 15 15 14 14 13 13 13 12 13 12 13 13
28 28 28 28 28 28 27 27 26 25 25 26 25 25 26 25 24 24 23 23 22 21 21 20 20 19 18 18 17 16 16 15 15 14 14 13 13 13 13 12 12 12 12 12
28 28 28 28 28 28 27 27 27 27 26 26 26 26 26 25 24 24 23 23 22 22 21 20 20 19 18 18 17 16 15 15 14 14 13 13 12 12 12 11 11 11 11 11
29 27 28 27 27 26 28 28 27 27 25 26 26 26 26 25 25 25 24 24 23 22 21 20 19 18 18 17 16 16 15 14 14 13 13 12 12 11 11 11 10 10 10 10
29 27 28 27 27 28 27 27 27 27 26 26 26 26 27 27 26 26 25 24 23 22 21 20 19 18 17 17 16 15 14 14 13 13 12 12 11 11 10 10 10 10 9 9
28 28 27 28 27 27 27 27 27 26 26 26 26 27 27 27 27 26 25 24 23 22 21 20 19 18 17 16 16 15 14 14 13 12 12 11 11 10 10 10 10 9 9 9
27 27 26 26 26 26 27 27 27 27 26 26 26 27 27 26 26 25 25 24 22 21 20 19 18 17 17 16 15 15 14 13 13 12 12 11 11 10 10 10 9 9 9 9
27 27 27 26 27 28 27 27 27 26 26 26 27 27 27 27 26 25 24 23 22 20 19 19 18 17 16 16 15 14 14 13 12 12 11 11 10 10 10 9 9 9 9 9
27 27 27 28 28 28 28 27 27 26 27 27 27 27 28 27 27 25 24 22 22 20 19 19 18 17 16 16 15 14 13 13 12 11 11 11 10 10 10 9 9 9 9 9
26 26 27 27 28 28 27 27 28 27 27 27 27 27 28 26 25 24 23 22 22 21 20 19 18 17 16 15 15 14 13 12 12 11 11 11 10 10 10 9 9 9 9 8
27 26 26 26 27 27 26 28 28 27 27 27 27 27 27 26 25 24 23 22 22 21 20 19 18 17 16 15 15 14 13 12 11 11 11 11 10 10 10 9 9 9 9 9
25 25 26 26 26 25 27 28 28 27 28 28 27 27 27 26 25 23 23 22 22 21 20 19 18 17 16 15 14 13 13 12 12 11 11 11 10 10 10 9 9 9 9 9
24 25 26 26 26 26 27 27 27 27 27 28 27 27 26 24 24 24 22 22 21 20 19 18 18 17 16 15 14 13 13 12 12 12 11 11 10 10 9 9 9 9 9 9
23 24 25 25 25 25 27 27 26 27 26 28 27 27 25 24 26 26 23 21 20 20 19 18 17 16 16 15 14 13 13 12 12 11 11 10 10 10 9 9 9 9 9 9
25 24 25 25 25 26 27 26 26 25 26 26 26 26 25 25 25 24 22 21 20 19 18 18 17 16 16 15 14 13 13 12 12 11 11 10 10 10 9 9 9 9 9 9
26 25 24 25 24 25 26 26 26 25 25 25 25 25 25 24 23 22 22 21 20 19 18 17 17 16 15 15 14 13 13 12 11 11 10 10 10 10 10 9 9 9 9 9
26 25 26 25 25 25 25 25 24 23 24 24 24 24 24 24 23 22 21 20 19 19 18 17 17 16 15 15 14 13 13 12 11 11 11 10 10 10 9 9 9 9 9 9
25 24 24 24 26 25 24 23 23 22 22 23 23 23 23 23 22 22 21 20 19 18 18 17 16 16 15 15 14 13 13 12 12 11 11 10 10 10 10 9 9 9 9 9
24 24 24 24 24 24 24 22 22 21 22 22 22 22 22 22 22 21 20 19 19 18 17 17 16 16 15 14 14 13 13 12 12 11 11 10 10 10 10 9 9 9 9 9
23 22 22 23 22 22 22 21 20 21 21 21 21 21 21 21 20 20 19 19 18 18 17 17 16 16 15 14 14 13 13 12 12 11 11 11 10 10 10 10 10 10 9 9
Wind_Speed
6 8 7 6 6 8 8 9 6 2 1 0 2 4 6 5 5 5 5 5 6 6 6 6 5 6 6 6 6 6 5 4 3 2 1 1 1 1 1 1 0 1 2 3
7 7 6 6 5 7 8 8 4 1 1 1 3 4 4 4 4 4 5 6 7 7 7 6 6 6 6 6 5 5 5 4 3 2 1 0 1 2 2 2 1 2 3 4
9 4 3 6 7 7 6 6 4 2 3 3 3 4 5 5 5 5 5 5 7 7 7 7 6 5 6 6 5 4 4 4 3 2 2 1 2 3 3 3 3 3 4 4
7 5 5 6 5 7 5 2 2 4 5 1 3 1 5 6 7 7 7 7 7 7 7 6 6 6 6 6 5 5 5 4 3 3 3 3 3 4 4 4 4 4 5 5
5 4 5 5 3 4 1 1 3 4 4 2 2 2 4 6 7 8 9 9 9 8 7 7 6 6 6 5 5 5 4 3 2 2 2 4 5 5 5 5 5 6 5 5
6 3 4 2 0 1 4 5 5 6 6 2 1 2 3 5 6 8 9 10 9 8 7 7 6 6 5 5 4 4 4 3 2 2 2 3 4 5 6 7 7 7 6 5
6 6 4 3 4 5 6 6 5 4 3 1 2 2 2 5 6 7 9 10 9 8 8 7 7 6 5 5 4 3 3 3 2 2 2 3 4 5 6 7 6 7 7 6
5 4 4 4 5 4 4 7 6 6 5 1 3 1 4 6 6 6 7 8 8 8 7 7 6 6 5 5 4 3 3 2 1 1 2 3 4 5 5 5 7 8 8 8
4 1 4 1 2 4 3 4 4 5 4 3 1 2 4 7 8 9 9 9 9 8 7 7 6 6 5 4 3 2 2 1 1 1 2 3 4 5 6 6 8 8 7 8
4 4 3 4 4 1 3 2 3 4 4 3 1 1 2 8 9 10 10 10 9 8 8 7 7 6 4 4 4 2 1 1 1 2 3 4 4 5 6 7 8 8 9 9
5 5 3 5 5 2 3 3 3 3 4 5 2 2 3 5 7 9 9 9 9 8 8 8 7 6 5 4 3 2 1 1 2 3 4 5 6 6 7 7 8 8 9 9
4 5 4 3 2 2 4 3 4 4 2 3 4 2 7 5 6 7 8 8 9 8 8 8 7 6 5 4 3 2 2 2 3 4 5 6 6 7 8 9 9 9 9 10
4 4 6 5 6 6 5 5 5 4 4 5 5 1 8 6 7 8 8 9 9 9 9 8 7 6 5 4 3 2 2 3 4 5 6 6 7 8 9 9 9 9 10 11
4 5 8 7 4 2 5 6 7 7 7 6 6 5 3 6 8 9 9 9 10 10 9 8 7 6 5 3 3 2 3 3 4 5 7 7 8 8 9 10 10 10 10 11
5 8 8 8 7 7 8 8 9 11 11 10 8 7 5 3 7 8 10 10 10 10 10 9 7 6 5 4 3 3 3 4 4 6 7 8 8 9 9 10 10 10 10 11
5 8 9 10 9 9 11 12 12 12 12 11 10 9 2 2 4 8 10 10 10 10 10 9 7 6 5 4 4 3 4 4 5 6 7 8 8 9 9 10 10 10 11 11
7 7 10 11 7 8 11 9 9 9 9 9 9 4 2 4 6 8 9 10 10 9 9 8 7 6 5 4 4 4 4 4 5 7 8 8 9 9 10 11 11 11 11 11
6 8 8 9 7 9 3 1 4 6 7 7 6 3 3 3 4 5 7 9 9 9 8 7 6 6 5 4 4 4 4 5 6 7 8 8 9 10 10 11 11 10 10 11
6 7 7 8 9 8 4 3 4 5 5 5 6 4 3 3 4 6 7 8 8 8 7 6 6 5 5 5 4 4 5 6 6 7 8 8 9 10 10 11 11 10 10 11
5 7 8 7 8 6 1 5 3 4 5 3 5 5 6 7 6 2 8 9 8 8 7 6 6 6 5 4 4 5 6 6 7 7 8 8 9 10 11 11 11 11 10 11
6 6 9 10 9 5 3 5 5 4 2 3 3 5 8 7 4 3 7 8 9 9 8 7 7 6 5 4 4 5 6 7 7 7 8 9 9 10 10 10 10 11 11 11
6 5 6 6 8 3 5 4 3 5 5 3 3 5 7 7 5 5 7 8 9 9 9 8 7 6 5 5 5 6 7 7 7 7 8 9 9 10 9 10 10 10 11 11
4 4 3 3 2 4 2 3 5 6 7 6 5 5 6 8 8 8 8 8 9 9 8 8 7 6 6 6 6 7 6 6 7 8 9 9 10 9 9 10 10 10 9 9
3 1 3 4 2 2 2 4 6 7 8 8 6 6 6 8 8 8 7 8 8 8 8 8 7 7 6 6 7 7 7 6 7 9 9 9 9 10 9 8 9 9 9 10
4 3 5 6 5 5 3 8 10 9 7 6 5 3 5 6 7 7 7 7 7 7 6 7 7 7 7 6 7 7 7 7 8 9 9 9 9 9 9 9 8 10 9 9
3 4 5 5 6 7 8 10 11 10 7 5 4 2 2 3 4 5 5 5 5 6 6 6 7 7 7 7 7 7 7 7 8 9 9 8 8 8 8 9 10 8 10 10
Wind_Direction
216 246 266 303 297 297 301 301 311 9 48 229 146 142 137 139 137 132 136 137 128 121 120 120 131 134 136 134 136 134 131 130 135 135 155 166 185 215 237 258 21 283 293 294
233 249 281 293 282 272 278 285 292 144 117 240 145 143 142 151 158 150 154 154 148 143 140 147 154 151 149 148 150 150 148 143 154 134 145 287 313 281 291 306 298 281 283 282
257 306 313 270 270 271 279 298 298 241 158 172 185 170 164 160 165 160 159 160 159 161 161 160 162 164 163 162 168 162 154 164 180 183 203 207 233 259 263 276 267 281 283 278
255 271 274 275 276 281 292 329 266 212 221 210 243 219 151 166 170 170 172 174 170 173 174 167 169 174 175 172 170 171 174 180 192 219 254 277 289 298 308 298 302 294 279 286
253 257 269 279 300 280 334 134 208 224 238 232 234 273 129 160 170 169 172 173 174 178 179 178 183 182 181 177 176 178 175 186 205 233 254 274 287 298 299 301 295 293 285 279
263 244 270 296 47 205 157 174 186 213 236 245 27 285 131 155 168 163 169 172 178 182 183 185 186 182 184 184 188 189 181 186 200 229 259 282 296 300 304 300 301 292 289 282
229 218 198 207 206 182 219 253 254 239 240 53 113 271 89 133 157 167 170 176 179 183 189 190 190 185 184 183 180 180 175 184 199 235 273 287 292 287 284 294 298 299 298 296
248 225 184 212 259 268 245 278 302 315 332 28 168 258 111 141 157 170 175 177 179 185 189 192 189 183 179 166 162 165 166 191 226 269 295 301 293 292 303 310 307 300 299 304
262 243 125 159 256 273 251 271 322 285 285 285 111 130 151 165 180 184 186 187 189 189 184 180 174 169 166 160 153 154 163 181 235 298 306 292 296 306 309 303 286 294 299 296
272 268 172 163 181 143 304 261 243 282 308 301 135 177 146 174 188 187 189 191 188 183 177 171 165 159 153 149 145 140 146 148 293 293 300 305 299 297 298 297 306 301 297 295
250 262 203 197 235 240 193 213 267 286 304 310 335 78 99 170 183 188 190 189 184 183 178 171 164 158 156 157 162 173 200 262 289 304 307 304 301 305 301 297 298 297 294 294
231 267 265 217 142 290 260 266 249 281 291 294 303 81 129 167 179 190 188 182 179 179 174 169 165 166 172 179 190 208 265 292 300 306 303 302 305 304 304 305 305 301 296 292
191 246 251 201 185 195 220 221 236 260 272 273 288 73 137 170 190 194 193 181 175 175 174 172 174 181 189 196 210 249 286 299 303 306 304 307 306 307 306 306 305 302 299 296
229 253 273 287 312 250 231 222 222 242 264 270 275 294 201 201 202 197 191 185 180 179 180 183 186 193 195 204 229 267 287 296 298 299 302 307 307 306 305 305 304 302 301 299
238 256 261 275 280 270 269 262 238 240 264 279 288 289 292 235 212 197 188 186 185 185 188 191 196 197 201 213 231 259 280 289 296 297 300 304 305 305 303 304 303 303 301 299
233 266 271 266 262 263 265 264 258 249 256 263 272 279 298 180 192 186 188 191 195 195 194 195 199 200 208 221 240 262 275 286 290 293 299 305 305 304 305 305 305 303 301 302
231 247 261 267 264 265 261 255 251 244 240 251 263 285 141 189 195 199 198 201 204 200 195 197 201 203 210 220 232 257 273 280 285 291 299 304 304 304 307 308 307 305 304 303
243 245 254 263 262 258 283 82 265 257 254 249 264 259 218 217 198 203 204 205 205 199 196 196 199 200 204 210 222 248 268 275 284 293 300 304 305 305 307 306 305 304 302 302
228 231 248 256 254 257 243 200 222 241 261 235 239 231 183 163 191 206 199 203 204 198 195 192 195 196 197 210 225 250 268 278 287 296 302 305 307 305 304 304 305 305 303 301
192 222 243 243 258 261 160 120 159 245 250 170 200 204 182 187 242 207 165 187 194 190 186 187 187 191 198 209 223 252 269 281 291 300 302 303 302 300 300 301 302 302 300 297
202 210 233 241 248 256 74 135 179 244 15 84 208 209 194 208 260 110 152 176 187 189 188 188 192 199 204 206 220 252 271 282 294 299 297 296 297 297 295 296 295 297 297 299
250 233 225 235 242 251 86 161 227 348 1 326 269 234 215 217 204 177 177 183 189 192 195 196 199 205 205 209 225 252 268 281 290 292 291 293 295 296 299 297 295 294 295 294
247 292 289 267 313 49 22 315 325 329 308 299 286 263 232 226 220 209 199 197 198 200 201 203 205 210 212 214 229 253 268 278 284 286 287 292 295 293 292 294 295 295 293 294
206 299 265 263 255 342 343 334 330 318 305 300 287 263 237 229 225 217 208 202 202 203 203 205 210 218 222 223 232 249 262 267 273 279 285 289 289 289 293 294 293 298 302 302
312 270 266 261 293 307 327 358 347 336 325 314 301 270 241 231 225 216 208 202 201 200 202 204 212 224 233 232 236 245 252 258 267 276 282 285 286 289 293 289 291 292 294 300
316 302 287 295 347 322 323 340 342 340 340 336 327 314 271 241 234 223 214 204 200 200 198 206 216 226 235 237 240 242 244 247 261 273 279 285 289 293 292 295 295 259 252 261
Height
1514 1511 1505 1501 1501 1502 1502 1502 1503 1505 1506 1506 1508 1512 1515 1519 1521 1522 1524 1527 1528 1530 1531 1532 1533 1534 1535 1535 1536 1537 1537 1538 1538 1539 1540 1540 1540 1540 1539 1538 1537 1536 1536 1535
1509 1505 1501 1501 1502 1502 1502 1503 1503 1506 1508 1508 1510 1514 1516 1519 1521 1522 1524 1526 1528 1530 1532 1533 1534 1534 1535 1536 1537 1537 1538 1538 1538 1539 1539 1539 1539 1539 1538 1537 1535 1534 1534 1533
1504 1500 1500 1501 1500 1502 1500 1501 1502 1505 1508 1508 1510 1514 1515 1518 1521 1522 1524 1526 1527 1529 1531 1533 1534 1535 1535 1536 1537 1538 1537 1538 1538 1538 1539 1538 1538 1537 1537 1536 1535 1533 1532 1531
1500 1499 1500 1499 1499 1500 1500 1499 1501 1504 1507 1507 1509 1515 1512 1513 1517 1520 1523 1525 1526 1529 1530 1532 1533 1534 1536 1536 1536 1536 1536 1537 1537 1537 1537 1537 1537 1536 1535 1534 1533 1531 1529 1528
1497 1498 1499 1499 1499 1499 1500 1501 1500 1501 1502 1505 1506 1508 1511 1510 1514 1516 1519 1522 1525 1527 1529 1530 1532 1534 1535 1536 1536 1536 1535 1535 1535 1535 1535 1534 1534 1533 1533 1531 1529 1527 1527 1525
1495 1497 1497 1497 1499 1499 1501 1501 1501 1500 1497 1510 1509 1509 1511 1507 1510 1512 1516 1520 1523 1526 1528 1529 1531 1532 1533 1534 1534 1534 1534 1533 1533 1533 1532 1531 1531 1529 1529 1527 1526 1525 1524 1522
1496 1494 1495 1497 1497 1499 1499 1501 1506 1508 1508 1510 1507 1507 1508 1504 1506 1509 1513 1518 1521 1524 1526 1527 1529 1530 1531 1532 1532 1532 1532 1531 1531 1530 1530 1528 1527 1526 1525 1524 1524 1522 1521 1520
1499 1498 1492 1494 1494 1495 1495 1497 1509 1517 1513 1506 1506 1507 1502 1503 1507 1511 1513 1516 1519 1522 1524 1525 1527 1528 1529 1529 1530 1530 1530 1529 1529 1528 1527 1525 1524 1524 1523 1521 1519 1518 1517 1516
1494 1497 1493 1494 1494 1493 1495 1494 1493 1500 1501 1505 1501 1501 1500 1503 1506 1509 1512 1515 1517 1519 1521 1523 1524 1526 1527 1528 1528 1528 1528 1527 1526 1525 1524 1522 1521 1520 1519 1517 1515 1515 1513 1511
1488 1496 1491 1494 1494 1496 1492 1492 1496 1499 1511 1511 1505 1503 1499 1501 1501 1504 1508 1511 1514 1517 1519 1521 1522 1524 1525 1525 1525 1525 1525 1524 1523 1522 1521 1521 1519 1517 1515 1513 1511 1509 1507 1505
1486 1494 1493 1492 1493 1490 1495 1495 1494 1495 1498 1504 1509 1503 1489 1493 1496 1499 1503 1507 1511 1514 1516 1519 1521 1522 1522 1523 1523 1523 1523 1522 1521 1520 1518 1517 1516 1514 1512 1510 1508 1505 1503 1500
1487 1487 1491 1489 1489 1490 1489 1490 1493 1501 1503 1500 1499 1499 1487 1491 1494 1497 1500 1505 1508 1512 1514 1517 1518 1519 1520 1521 1521 1521 1520 1519 1518 1517 1515 1514 1512 1510 1508 1507 1504 1501 1499 1496
1488 1492 1498 1497 1497 1493 1490 1490 1491 1493 1496 1497 1500 1497 1488 1491 1493 1496 1499 1503 1507 1510 1512 1515 1516 1517 1518 1518 1518 1518 1518 1517 1516 1514 1513 1511 1509 1507 1505 1503 1500 1497 1495 1492
1488 1488 1493 1498 1491 1484 1488 1488 1489 1492 1494 1493 1492 1489 1486 1487 1490 1494 1498 1501 1505 1507 1510 1512 1513 1515 1515 1516 1516 1515 1515 1514 1512 1511 1510 1508 1506 1504 1501 1499 1496 1494 1491 1488
1488 1487 1484 1482 1479 1481 1483 1483 1484 1488 1487 1489 1485 1483 1481 1483 1487 1491 1495 1499 1502 1505 1507 1509 1511 1512 1512 1513 1513 1512 1512 1511 1509 1508 1507 1505 1503 1500 1498 1495 1493 1490 1487 1485
1486 1487 1484 1484 1479 1479 1482 1480 1479 1480 1481 1482 1482 1481 1478 1483 1487 1490 1493 1497 1499 1502 1504 1506 1508 1509 1509 1510 1510 1509 1509 1508 1506 1505 1504 1502 1499 1497 1495 1492 1490 1487 1484 1481
1481 1486 1488 1486 1477 1481 1484 1475 1474 1475 1475 1477 1479 1477 1479 1483 1486 1488 1491 1494 1496 1499 1501 1503 1505 1506 1506 1507 1506 1506 1506 1504 1503 1502 1501 1499 1496 1494 1491 1489 1486 1483 1480 1477
1483 1485 1484 1482 1484 1497 1475 1468 1470 1472 1471 1472 1473 1475 1479 1481 1484 1487 1489 1492 1494 1496 1498 1500 1502 1503 1503 1503 1503 1503 1502 1501 1500 1499 1498 1496 1493 1490 1488 1485 1482 1479 1476 1473
1483 1483 1481 1481 1484 1480 1469 1468 1470 1473 1472 1469 1472 1474 1478 1482 1484 1484 1487 1489 1491 1494 1496 1498 1499 1500 1500 1500 1500 1500 1499 1499 1498 1496 1494 1492 1489 1486 1484 1481 1478 1475 1472 1469
1483 1482 1480 1480 1486 1487 1471 1467 1470 1473 1474 1468 1471 1473 1477 1480 1478 1478 1483 1486 1489 1491 1493 1494 1496 1496 1497 1497 1497 1496 1496 1496 1495 1493 1491 1488 1485 1483 1480 1477 1474 1471 1468 1465
1478 1481 1479 1479 1481 1471 1464 1469 1472 1479 1475 1470 1471 1472 1475 1476 1477 1479 1481 1484 1486 1488 1490 1491 1492 1493 1494 1494 1493 1493 1493 1492 1491 1489 1487 1484 1482 1479 1476 1473 1470 1467 1464 1461
1471 1473 1477 1476 1481 1478 1469 1468 1470 1472 1471 1471 1471 1472 1473 1475 1476 1478 1480 1481 1483 1485 1487 1488 1489 1490 1490 1490 1490 1490 1489 1488 1487 1485 1483 1480 1478 1475 1473 1469 1466 1463 1460 1457
1468 1468 1466 1470 1472 1471 1470 1471 1472 1473 1472 1471 1471 1471 1472 1473 1474 1476 1477 1479 1481 1482 1484 1485 1486 1487 1487 1487 1486 1486 1486 1484 1483 1481 1479 1476 1474 1471 1469 1466 1463 1460 1457 1454
1466 1471 1470 1470 1466 1469 1471 1472 1472 1471 1471 1470 1469 1469 1469 1470 1471 1473 1474 1476 1477 1479 1480 1481 1482 1483 1483 1483 1483 1482 1481 1480 1478 1477 1475 1472 1470 1467 1465 1462 1459 1457 1454 1450
1470 1470 1469 1469 1468 1469 1469 1471 1471 1469 1468 1468 1467 1467 1467 1467 1468 1469 1471 1472 1473 1475 1476 1477 1478 1478 1479 1479 1479 1478 1477 1476 1474 1473 1471 1469 1466 1464 1461 1458 1455 1452 1449 1447
1472 1473 1472 1469 1472 1473 1472 1472 1470 1468 1467 1466 1465 1465 1465 1465 1466 1467 1468 1469 1470 1471 1472 1473 1474 1475 1475 1475 1474 1473 1472 1471 1470 1469 1467 1465 1463 1460 1457 1454 1451 1448 1445 1441